Weather Roundup
Issued by NWS Chicago, IL

Home | Current Version | Previous Version | Graphics & Text | Print | Product List | Glossary On
Versions: 1 2 3 4 5 6 7 8 9 10 11 12 13 14 15 16 17 18 19 20 21 22 23 24 25 26 27 28 29 30 31 32 33 34 35 36 37 38 39 40 41 42 43 44 45 46 47 48 49 50
000
NZUS59 KLOT 210003
HRRLOT

CHICAGO AREA WEATHER ROUNDUP
NATIONAL WEATHER SERVICE CHICAGO/ROMEOVILLE IL
600 PM CST MON FEB 20 2017

NOTE: "FAIR" INDICATES FEW OR NO CLOUDS BELOW 12,000 FEET WITH NO
SIGNIFICANT WEATHER AND/OR OBSTRUCTIONS TO VISIBILITY.

* THESE STATIONS ARE NOT UNDER NWS QUALITY CONTROL. THEY ALSO MAY NOT
  REPORT WEATHER SUCH AS PRECIPITATION OR FOG.

ILZ005-006-012>014-019>023-210100-
NORTHEAST ILLINOIS

CITY           SKY/WX    TMP DP  RH WIND       PRES   REMARKS
OHARE          CLOUDY    65  46  50 S16G25    29.96F
6HR MIN TEMP:  64; 6HR MAX TEMP:  70;

MIDWAY         CLOUDY    64  44  48 SE13G24   29.98S
6HR MIN TEMP:  64; 6HR MAX TEMP:  69;

AURORA         CLOUDY    64  50  60 SE14      29.94F
6HR MIN TEMP:  64; 6HR MAX TEMP:  70;

LANSING*       CLOUDY    61  48  62 SE10      30.00S
JOLIET*        CLOUDY    64  50  59 SE8       29.97S
WAUKEGAN       CLOUDY    53  41  63 S15       29.95F
6HR MIN TEMP:  49; 6HR MAX TEMP:  54;

DUPAGE AIRPORT CLOUDY    64  46  52 SE17G23   29.95S
6HR MIN TEMP:  64; 6HR MAX TEMP:  69;

WHEELING       CLOUDY    63  45  51 SE17      29.96F
6HR MIN TEMP:  63; 6HR MAX TEMP:  68;

KANKAKEE*      CLOUDY    61  48  63 SE8       30.00R
MORRIS*        CLOUDY    64  50  61 SE15G21   29.94F
LEWIS AIRPORT* CLOUDY    62  51  68 S14       29.97S
NORTHERLY ISL    N/A     47  39  74 SE5         N/A
$$

WIZ051-052-058>065-066-070>072-210100-
SOUTHEAST WISCONSIN

CITY           SKY/WX    TMP DP  RH WIND       PRES   REMARKS
MILWAUKEE      CLOUDY    57  41  55 SE15      29.94F
6HR MIN TEMP:  50; 6HR MAX TEMP:  58;

KENOSHA*       CLOUDY    59  44  57 SE18      29.95F
RACINE*        CLOUDY    52  39  61 S18G26    29.97F
WAUKESHA       MOCLDY    55  43  62 SE12G25   29.93F
$$

INZ001>003-010>013-019-020-210100-
NORTHWEST INDIANA

CITY           SKY/WX    TMP DP  RH WIND       PRES   REMARKS
GARY*          MOCLDY    64  41  42 SE12G23   30.00F
MICHIGAN CITY* NOT AVBL
RENSSELAER*    NOT AVBL
VALPARAISO     CLOUDY    61  44  53 SE9       30.03F
$$

LMZ740>746-210100-
SOUTHERN LAKE MICHIGAN

STATION/POSITION TIME  SKY/WX   TEMP WIND        PRES    VSBY
                                AIR  DIR/SP/G
                 (UTC)          (F)  (DEG/KT/KT) (MB)    (MI)
HARRISON CRIB    2340            50  150/ 19/ 21   N/A
BURNHAM HARBOR   0000            46  160/  7       N/A
CALUMET HARBOR   2330            63  140/ 11/ 21 1014.8F
BURNS HARBOR     2340            63  140/ 12/ 18 1016.6F
MICHIGAN CITY    2340            63  120/ 16/ 20   N/A
$$

ABBREVIATIONS USED IN REMARKS
   TC - TEMPERATURE IN CELSIUS
  WCI - WIND CHILL INDEX
   HX - HEAT INDEX
  VSB - VISIBILITY
$$



USA.gov is the U.S. government's official web portal to all federal, state and local government web resources and services.